Time,TemperatureF,DewpointF,PressureIn,WindDirection,WindDirectionDegrees,WindSpeedMPH,WindSpeedGustMPH,Humidity,HourlyPrecipIn,Conditions,Clouds,dailyrainin,SoftwareType,DateUTC
2013-04-28 00:03:00,60.0,-99.9,-100.00,NE,35,7.0,10.0,-999,-99.99,,,-99.99,,2013-04-28 04:03:00,
2013-04-28 00:13:00,60.0,-99.9,-100.00,NE,40,7.0,9.0,-999,-99.99,,,-99.99,,2013-04-28 04:13:00,
2013-04-28 00:23:00,59.0,-99.9,-100.00,NNE,20,11.0,13.0,-999,-99.99,,,-99.99,,2013-04-28 04:23:00,
2013-04-28 00:33:00,59.0,-99.9,-100.00,NNE,25,9.0,12.0,-999,-99.99,,,-99.99,,2013-04-28 04:33:00,
2013-04-28 00:43:00,58.0,-99.9,-100.00,NE,35,9.0,11.0,-999,-99.99,,,-99.99,,2013-04-28 04:43:00,
2013-04-28 00:53:00,58.0,-99.9,-100.00,NE,35,9.0,11.0,-999,-99.99,,,-99.99,,2013-04-28 04:53:00,
2013-04-28 01:02:00,58.0,-99.9,-100.00,NE,45,8.0,10.0,-999,-99.99,,,-99.99,,2013-04-28 05:02:00,
2013-04-28 01:12:00,59.0,-99.9,-100.00,NNE,30,7.0,10.0,-999,-99.99,,,-99.99,,2013-04-28 05:12:00,
2013-04-28 01:22:00,58.0,-99.9,-100.00,NE,35,8.0,9.0,-999,-99.99,,,-99.99,,2013-04-28 05:22:00,
2013-04-28 01:33:00,59.0,-99.9,-100.00,NE,35,7.0,9.0,-999,-99.99,,,-99.99,,2013-04-28 05:33:00,
2013-04-28 01:42:00,59.0,-99.9,-100.00,NE,40,8.0,9.0,-999,-99.99,,,-99.99,,2013-04-28 05:42:00,
2013-04-28 01:52:00,59.0,-99.9,-100.00,NE,45,6.0,9.0,-999,-99.99,,,-99.99,,2013-04-28 05:52:00,
2013-04-28 02:02:00,59.0,-99.9,-100.00,NE,45,7.0,8.0,-999,-99.99,,,-99.99,,2013-04-28 06:02:00,
2013-04-28 02:13:00,59.0,-99.9,-100.00,NE,40,7.0,8.0,-999,-99.99,,,-99.99,,2013-04-28 06:13:00,
2013-04-28 02:22:00,59.0,-99.9,-100.00,NE,40,7.0,9.0,-999,-99.99,,,-99.99,,2013-04-28 06:22:00,
2013-04-28 02:32:00,59.0,-99.9,-100.00,NE,45,7.0,9.0,-999,-99.99,,,-99.99,,2013-04-28 06:32:00,
2013-04-28 02:42:00,59.0,-99.9,-100.00,NE,40,6.0,9.0,-999,-99.99,,,-99.99,,2013-04-28 06:42:00,
2013-04-28 02:52:00,59.0,-99.9,-100.00,NE,45,6.0,8.0,-999,-99.99,,,-99.99,,2013-04-28 06:52:00,
2013-04-28 03:02:00,58.0,-99.9,-100.00,NE,50,6.0,8.0,-999,-99.99,,,-99.99,,2013-04-28 07:02:00,
2013-04-28 03:11:00,58.0,-99.9,-100.00,NE,50,7.0,8.0,-999,-99.99,,,-99.99,,2013-04-28 07:11:00,
2013-04-28 03:22:00,58.0,-99.9,-100.00,NE,40,7.0,9.0,-999,-99.99,,,-99.99,,2013-04-28 07:22:00,
2013-04-28 03:32:00,58.0,-99.9,-100.00,NE,35,7.0,9.0,-999,-99.99,,,-99.99,,2013-04-28 07:32:00,
2013-04-28 03:42:00,58.0,-99.9,-100.00,NE,40,7.0,9.0,-999,-99.99,,,-99.99,,2013-04-28 07:42:00,
2013-04-28 03:52:00,59.0,-99.9,-100.00,NE,50,9.0,11.0,-999,-99.99,,,-99.99,,2013-04-28 07:52:00,
2013-04-28 04:02:00,59.0,-99.9,-100.00,NE,40,8.0,10.0,-999,-99.99,,,-99.99,,2013-04-28 08:02:00,
2013-04-28 04:12:00,59.0,-99.9,-100.00,NE,50,9.0,11.0,-999,-99.99,,,-99.99,,2013-04-28 08:12:00,
2013-04-28 04:22:00,59.0,-99.9,-100.00,NE,45,9.0,11.0,-999,-99.99,,,-99.99,,2013-04-28 08:22:00,
2013-04-28 04:32:00,59.0,-99.9,-100.00,NE,50,8.0,10.0,-999,-99.99,,,-99.99,,2013-04-28 08:32:00,
2013-04-28 04:42:00,59.0,-99.9,-100.00,NE,55,9.0,11.0,-999,-99.99,,,-99.99,,2013-04-28 08:42:00,
2013-04-28 04:52:00,59.0,-99.9,-100.00,ENE,60,9.0,11.0,-999,-99.99,,,-99.99,,2013-04-28 08:52:00,
2013-04-28 05:01:00,59.0,-99.9,-100.00,ENE,70,6.0,9.0,-999,-99.99,,,-99.99,,2013-04-28 09:01:00,
2013-04-28 05:12:00,60.0,-99.9,-100.00,East,100,4.0,9.0,-999,-99.99,,,-99.99,,2013-04-28 09:12:00,
2013-04-28 05:22:00,60.0,-99.9,-100.00,NE,50,4.0,8.0,-999,-99.99,,,-99.99,,2013-04-28 09:22:00,
2013-04-28 05:33:00,60.0,-99.9,-100.00,ENE,65,4.0,6.0,-999,-99.99,,,-99.99,,2013-04-28 09:33:00,
2013-04-28 05:43:00,60.0,-99.9,-100.00,ENE,70,4.0,6.0,-999,-99.99,,,-99.99,,2013-04-28 09:43:00,
2013-04-28 05:53:00,60.0,-99.9,-100.00,ENE,65,4.0,6.0,-999,-99.99,,,-99.99,,2013-04-28 09:53:00,
2013-04-28 06:03:00,60.0,-99.9,-100.00,NE,55,6.0,6.0,-999,-99.99,,,-99.99,,2013-04-28 10:03:00,
2013-04-28 06:12:00,60.0,-99.9,-100.00,NE,40,6.0,8.0,-999,-99.99,,,-99.99,,2013-04-28 10:12:00,
2013-04-28 06:23:00,60.0,-99.9,-100.00,NE,55,6.0,7.0,-999,-99.99,,,-99.99,,2013-04-28 10:23:00,
2013-04-28 06:32:00,60.0,-99.9,-100.00,NE,40,7.0,8.0,-999,-99.99,,,-99.99,,2013-04-28 10:32:00,
2013-04-28 06:42:00,60.0,-99.9,-100.00,NE,40,7.0,9.0,-999,-99.99,,,-99.99,,2013-04-28 10:42:00,
2013-04-28 06:53:00,60.0,-99.9,-100.00,NE,50,8.0,9.0,-999,-99.99,,,-99.99,,2013-04-28 10:53:00,
2013-04-28 07:03:00,61.0,-99.9,-100.00,NE,45,8.0,10.0,-999,-99.99,,,-99.99,,2013-04-28 11:03:00,
2013-04-28 07:11:00,61.0,-99.9,-100.00,NE,40,7.0,9.0,-999,-99.99,,,-99.99,,2013-04-28 11:11:00,
2013-04-28 07:22:00,61.0,-99.9,-100.00,NE,50,9.0,10.0,-999,-99.99,,,-99.99,,2013-04-28 11:22:00,
2013-04-28 07:32:00,61.0,-99.9,-100.00,NE,55,9.0,10.0,-999,-99.99,,,-99.99,,2013-04-28 11:32:00,
2013-04-28 07:42:00,61.0,-99.9,-100.00,NE,45,8.0,10.0,-999,-99.99,,,-99.99,,2013-04-28 11:42:00,
2013-04-28 07:52:00,62.0,-99.9,-100.00,NE,45,9.0,10.0,-999,-99.99,,,-99.99,,2013-04-28 11:52:00,
2013-04-28 08:02:00,62.0,-99.9,-100.00,NE,55,8.0,10.0,-999,-99.99,,,-99.99,,2013-04-28 12:02:00,
2013-04-28 08:12:00,62.0,-99.9,-100.00,ENE,60,10.0,11.0,-999,-99.99,,,-99.99,,2013-04-28 12:12:00,
2013-04-28 08:22:00,63.0,-99.9,-100.00,ENE,75,9.0,11.0,-999,-99.99,,,-99.99,,2013-04-28 12:22:00,
2013-04-28 08:32:00,63.0,-99.9,-100.00,ENE,60,9.0,11.0,-999,-99.99,,,-99.99,,2013-04-28 12:32:00,
2013-04-28 08:42:00,63.0,-99.9,-100.00,ENE,60,9.0,10.0,-999,-99.99,,,-99.99,,2013-04-28 12:42:00,
2013-04-28 08:52:00,64.0,-99.9,-100.00,ENE,65,9.0,10.0,-999,-99.99,,,-99.99,,2013-04-28 12:52:00,
2013-04-28 09:02:00,65.0,-99.9,-100.00,ENE,70,9.0,11.0,-999,-99.99,,,-99.99,,2013-04-28 13:02:00,
2013-04-28 09:11:00,66.0,-99.9,-100.00,ENE,65,7.0,11.0,-999,-99.99,,,-99.99,,2013-04-28 13:11:00,
2013-04-28 09:22:00,66.0,-99.9,-100.00,East,85,6.0,11.0,-999,-99.99,,,-99.99,,2013-04-28 13:22:00,
2013-04-28 09:32:00,66.0,-99.9,-100.00,ENE,70,6.0,10.0,-999,-99.99,,,-99.99,,2013-04-28 13:32:00,
2013-04-28 09:42:00,67.0,-99.9,-100.00,East,90,6.0,9.0,-999,-99.99,,,-99.99,,2013-04-28 13:42:00,
2013-04-28 09:52:00,67.0,-99.9,-100.00,East,100,6.0,10.0,-999,-99.99,,,-99.99,,2013-04-28 13:52:00,
2013-04-28 10:02:00,68.0,-99.9,-100.00,ESE,110,9.0,13.0,-999,-99.99,,,-99.99,,2013-04-28 14:02:00,
2013-04-28 10:11:00,68.0,-99.9,-100.00,ESE,105,14.0,17.0,-999,-99.99,,,-99.99,,2013-04-28 14:11:00,
2013-04-28 10:22:00,68.0,-99.9,-100.00,ESE,110,11.0,16.0,-999,-99.99,,,-99.99,,2013-04-28 14:22:00,
2013-04-28 10:32:00,69.0,-99.9,-100.00,East,90,14.0,19.0,-999,-99.99,,,-99.99,,2013-04-28 14:32:00,
2013-04-28 10:42:00,68.0,-99.9,-100.00,SE,125,15.0,20.0,-999,-99.99,,,-99.99,,2013-04-28 14:42:00,
2013-04-28 10:52:00,69.0,-99.9,-100.00,SE,125,12.0,17.0,-999,-99.99,,,-99.99,,2013-04-28 14:52:00,
2013-04-28 11:02:00,69.0,-99.9,-100.00,ESE,120,13.0,19.0,-999,-99.99,,,-99.99,,2013-04-28 15:02:00,
2013-04-28 11:12:00,69.0,-99.9,-100.00,SE,125,12.0,21.0,-999,-99.99,,,-99.99,,2013-04-28 15:12:00,
2013-04-28 11:22:00,69.0,-99.9,-100.00,ESE,120,15.0,24.0,-999,-99.99,,,-99.99,,2013-04-28 15:22:00,
2013-04-28 11:33:00,69.0,-99.9,-100.00,SE,125,18.0,24.0,-999,-99.99,,,-99.99,,2013-04-28 15:33:00,
2013-04-28 11:43:00,69.0,-99.9,-100.00,ESE,115,13.0,23.0,-999,-99.99,,,-99.99,,2013-04-28 15:43:00,
2013-04-28 11:53:00,69.0,-99.9,-100.00,SE,130,13.0,20.0,-999,-99.99,,,-99.99,,2013-04-28 15:53:00,
2013-04-28 12:03:00,69.0,-99.9,-100.00,SE,130,16.0,24.0,-999,-99.99,,,-99.99,,2013-04-28 16:03:00,
2013-04-28 12:13:00,69.0,-99.9,-100.00,SE,125,16.0,24.0,-999,-99.99,,,-99.99,,2013-04-28 16:13:00,
2013-04-28 12:23:00,69.0,-99.9,-100.00,SE,135,17.0,24.0,-999,-99.99,,,-99.99,,2013-04-28 16:23:00,
2013-04-28 12:33:00,70.0,-99.9,-100.00,SE,130,14.0,22.0,-999,-99.99,,,-99.99,,2013-04-28 16:33:00,
2013-04-28 12:43:00,70.0,-99.9,-100.00,SE,135,16.0,21.0,-999,-99.99,,,-99.99,,2013-04-28 16:43:00,
2013-04-28 12:53:00,70.0,-99.9,-100.00,SE,125,13.0,20.0,-999,-99.99,,,-99.99,,2013-04-28 16:53:00,
2013-04-28 13:02:00,70.0,-99.9,-100.00,SE,130,16.0,20.0,-999,-99.99,,,-99.99,,2013-04-28 17:02:00,
2013-04-28 13:12:00,70.0,-99.9,-100.00,SE,135,16.0,21.0,-999,-99.99,,,-99.99,,2013-04-28 17:12:00,
2013-04-28 13:22:00,70.0,-99.9,-100.00,SE,145,17.0,25.0,-999,-99.99,,,-99.99,,2013-04-28 17:22:00,
2013-04-28 13:32:00,70.0,-99.9,-100.00,SE,145,17.0,23.0,-999,-99.99,,,-99.99,,2013-04-28 17:32:00,
2013-04-28 13:43:00,69.0,-99.9,-100.00,SE,135,20.0,26.0,-999,-99.99,,,-99.99,,2013-04-28 17:43:00,
2013-04-28 13:52:00,69.0,-99.9,-100.00,SSE,150,19.0,26.0,-999,-99.99,,,-99.99,,2013-04-28 17:52:00,
2013-04-28 14:02:00,69.0,-99.9,-100.00,SE,140,17.0,26.0,-999,-99.99,,,-99.99,,2013-04-28 18:02:00,
2013-04-28 14:12:00,69.0,-99.9,-100.00,SE,140,15.0,23.0,-999,-99.99,,,-99.99,,2013-04-28 18:12:00,
2013-04-28 14:23:00,69.0,-99.9,-100.00,SE,135,13.0,24.0,-999,-99.99,,,-99.99,,2013-04-28 18:23:00,
2013-04-28 14:32:00,68.0,-99.9,-100.00,SE,135,15.0,23.0,-999,-99.99,,,-99.99,,2013-04-28 18:32:00,
2013-04-28 14:42:00,68.0,-99.9,-100.00,SE,135,14.0,23.0,-999,-99.99,,,-99.99,,2013-04-28 18:42:00,
2013-04-28 14:52:00,68.0,-99.9,-100.00,SE,135,14.0,23.0,-999,-99.99,,,-99.99,,2013-04-28 18:52:00,
2013-04-28 15:02:00,68.0,-99.9,-100.00,ESE,120,14.0,19.0,-999,-99.99,,,-99.99,,2013-04-28 19:02:00,
2013-04-28 15:11:00,68.0,-99.9,-100.00,SE,130,14.0,24.0,-999,-99.99,,,-99.99,,2013-04-28 19:11:00,
2013-04-28 15:22:00,68.0,-99.9,-100.00,SE,125,19.0,24.0,-999,-99.99,,,-99.99,,2013-04-28 19:22:00,
2013-04-28 15:32:00,69.0,-99.9,-100.00,SE,140,17.0,23.0,-999,-99.99,,,-99.99,,2013-04-28 19:32:00,
2013-04-28 15:42:00,68.0,-99.9,-100.00,ESE,115,15.0,21.0,-999,-99.99,,,-99.99,,2013-04-28 19:42:00,
2013-04-28 15:52:00,69.0,-99.9,-100.00,SE,140,16.0,21.0,-999,-99.99,,,-99.99,,2013-04-28 19:52:00,
2013-04-28 16:02:00,69.0,-99.9,-100.00,SE,135,17.0,21.0,-999,-99.99,,,-99.99,,2013-04-28 20:02:00,
2013-04-28 16:12:00,69.0,-99.9,-100.00,SE,135,17.0,21.0,-999,-99.99,,,-99.99,,2013-04-28 20:12:00,
2013-04-28 16:22:00,69.0,-99.9,-100.00,SE,140,12.0,19.0,-999,-99.99,,,-99.99,,2013-04-28 20:22:00,
2013-04-28 16:33:00,69.0,-99.9,-100.00,SE,140,12.0,19.0,-999,-99.99,,,-99.99,,2013-04-28 20:33:00,
2013-04-28 16:42:00,69.0,-99.9,-100.00,SSE,150,11.0,18.0,-999,-99.99,,,-99.99,,2013-04-28 20:42:00,
2013-04-28 16:52:00,69.0,-99.9,-100.00,SSE,150,11.0,18.0,-999,-99.99,,,-99.99,,2013-04-28 20:52:00,
2013-04-28 17:01:00,69.0,-99.9,-100.00,SE,145,14.0,21.0,-999,-99.99,,,-99.99,,2013-04-28 21:01:00,
2013-04-28 17:12:00,69.0,-99.9,-100.00,SE,145,14.0,20.0,-999,-99.99,,,-99.99,,2013-04-28 21:12:00,
2013-04-28 17:22:00,69.0,-99.9,-100.00,SE,130,11.0,19.0,-999,-99.99,,,-99.99,,2013-04-28 21:22:00,
2013-04-28 17:33:00,69.0,-99.9,-100.00,SE,130,14.0,20.0,-999,-99.99,,,-99.99,,2013-04-28 21:33:00,
2013-04-28 17:43:00,69.0,-99.9,-100.00,SE,130,14.0,20.0,-999,-99.99,,,-99.99,,2013-04-28 21:43:00,
2013-04-28 17:53:00,68.0,-99.9,-100.00,SE,135,11.0,19.0,-999,-99.99,,,-99.99,,2013-04-28 21:53:00,
2013-04-28 18:03:00,68.0,-99.9,-100.00,SE,125,13.0,17.0,-999,-99.99,,,-99.99,,2013-04-28 22:03:00,
2013-04-28 18:13:00,68.0,-99.9,-100.00,SE,125,13.0,17.0,-999,-99.99,,,-99.99,,2013-04-28 22:13:00,
2013-04-28 18:23:00,68.0,-99.9,-100.00,ESE,115,14.0,20.0,-999,-99.99,,,-99.99,,2013-04-28 22:23:00,
2013-04-28 18:34:00,68.0,-99.9,-100.00,SE,145,10.0,16.0,-999,-99.99,,,-99.99,,2013-04-28 22:34:00,
2013-04-28 18:43:00,68.0,-99.9,-100.00,SE,145,11.0,14.0,-999,-99.99,,,-99.99,,2013-04-28 22:43:00,
2013-04-28 18:53:00,68.0,-99.9,-100.00,SE,125,12.0,17.0,-999,-99.99,,,-99.99,,2013-04-28 22:53:00,
2013-04-28 19:02:00,68.0,-99.9,-100.00,ESE,115,9.0,15.0,-999,-99.99,,,-99.99,,2013-04-28 23:02:00,
2013-04-28 19:12:00,68.0,-99.9,-100.00,SE,145,9.0,14.0,-999,-99.99,,,-99.99,,2013-04-28 23:12:00,
2013-04-28 19:22:00,68.0,-99.9,-100.00,SE,140,13.0,19.0,-999,-99.99,,,-99.99,,2013-04-28 23:22:00,
2013-04-28 19:32:00,68.0,-99.9,-100.00,SE,145,10.0,17.0,-999,-99.99,,,-99.99,,2013-04-28 23:32:00,
2013-04-28 19:42:00,68.0,-99.9,-100.00,SE,140,11.0,16.0,-999,-99.99,,,-99.99,,2013-04-28 23:42:00,
2013-04-28 19:52:00,68.0,-99.9,-100.00,SE,135,8.0,16.0,-999,-99.99,,,-99.99,,2013-04-28 23:52:00,
2013-04-28 20:02:00,68.0,-99.9,-100.00,SE,125,9.0,16.0,-999,-99.99,,,-99.99,,2013-04-29 00:02:00,
2013-04-28 20:11:00,68.0,-99.9,-100.00,SSE,150,8.0,12.0,-999,-99.99,,,-99.99,,2013-04-29 00:11:00,
2013-04-28 20:22:00,68.0,-99.9,-100.00,SE,125,9.0,14.0,-999,-99.99,,,-99.99,,2013-04-29 00:22:00,
2013-04-28 20:32:00,68.0,-99.9,-100.00,SE,125,9.0,14.0,-999,-99.99,,,-99.99,,2013-04-29 00:32:00,
2013-04-28 20:42:00,69.0,-99.9,-100.00,SSE,160,10.0,17.0,-999,-99.99,,,-99.99,,2013-04-29 00:42:00,
2013-04-28 20:52:00,69.0,-99.9,-100.00,SSE,160,9.0,15.0,-999,-99.99,,,-99.99,,2013-04-29 00:52:00,
2013-04-28 21:01:00,69.0,-99.9,-100.00,SE,130,11.0,15.0,-999,-99.99,,,-99.99,,2013-04-29 01:01:00,
2013-04-28 21:12:00,68.0,-99.9,-100.00,SE,145,14.0,20.0,-999,-99.99,,,-99.99,,2013-04-29 01:12:00,
2013-04-28 21:22:00,68.0,-99.9,-100.00,SE,125,11.0,21.0,-999,-99.99,,,-99.99,,2013-04-29 01:22:00,
2013-04-28 21:32:00,67.0,-99.9,-100.00,SE,135,11.0,18.0,-999,-99.99,,,-99.99,,2013-04-29 01:32:00,
2013-04-28 21:42:00,67.0,-99.9,-100.00,SE,140,12.0,16.0,-999,-99.99,,,-99.99,,2013-04-29 01:42:00,
2013-04-28 21:52:00,67.0,-99.9,-100.00,SE,140,12.0,16.0,-999,-99.99,,,-99.99,,2013-04-29 01:52:00,
2013-04-28 22:02:00,68.0,-99.9,-100.00,SE,145,15.0,19.0,-999,-99.99,,,-99.99,,2013-04-29 02:02:00,
2013-04-28 22:11:00,68.0,-99.9,-100.00,SE,135,12.0,19.0,-999,-99.99,,,-99.99,,2013-04-29 02:11:00,
2013-04-28 22:22:00,68.0,-99.9,-100.00,SE,130,11.0,16.0,-999,-99.99,,,-99.99,,2013-04-29 02:22:00,
2013-04-28 22:32:00,68.0,-99.9,-100.00,SE,135,12.0,19.0,-999,-99.99,,,-99.99,,2013-04-29 02:32:00,
2013-04-28 22:42:00,68.0,-99.9,-100.00,SE,145,14.0,21.0,-999,-99.99,,,-99.99,,2013-04-29 02:42:00,
2013-04-28 22:52:00,68.0,-99.9,-100.00,SE,145,14.0,19.0,-999,-99.99,,,-99.99,,2013-04-29 02:52:00,
2013-04-28 23:02:00,68.0,-99.9,-100.00,SE,145,14.0,20.0,-999,-99.99,,,-99.99,,2013-04-29 03:02:00,
2013-04-28 23:12:00,68.0,-99.9,-100.00,ESE,120,10.0,17.0,-999,-99.99,,,-99.99,,2013-04-29 03:12:00,
2013-04-28 23:22:00,68.0,-99.9,-100.00,SE,140,12.0,19.0,-999,-99.99,,,-99.99,,2013-04-29 03:22:00,
2013-04-28 23:33:00,68.0,-99.9,-100.00,SE,135,11.0,19.0,-999,-99.99,,,-99.99,,2013-04-29 03:33:00,
2013-04-28 23:43:00,68.0,-99.9,-100.00,SE,145,11.0,16.0,-999,-99.99,,,-99.99,,2013-04-29 03:43:00,
2013-04-28 23:53:00,68.0,-99.9,-100.00,SE,140,12.0,16.0,-999,-99.99,,,-99.99,,2013-04-29 03:53:00,